TimeCDT,TemperatureF,Dew PointF,Humidity,Sea Level PressureIn,VisibilityMPH,Wind Direction,Wind SpeedMPH,Gust SpeedMPH,PrecipitationIn,Events,Conditions,WindDirDegrees,DateUTC
12:53 AM,62.1,60.1,93,29.89,10.0,South,3.5,-,N/A,,Clear,180,2013-06-24 05:53:00
1:53 AM,63.0,60.1,90,29.91,10.0,SSW,4.6,-,N/A,,Clear,200,2013-06-24 06:53:00
2:53 AM,61.0,59.0,93,29.91,10.0,Calm,Calm,-,N/A,,Clear,0,2013-06-24 07:53:00
3:53 AM,60.1,59.0,96,29.89,10.0,Calm,Calm,-,N/A,,Clear,0,2013-06-24 08:53:00
4:53 AM,59.0,57.9,96,29.90,8.0,Calm,Calm,-,N/A,,Clear,0,2013-06-24 09:53:00
5:21 AM,57.2,57.2,100,29.89,2.5,Calm,Calm,-,N/A,,Clear,0,2013-06-24 10:21:00
5:30 AM,59.0,57.2,94,29.90,1.2,Calm,Calm,-,N/A,,Clear,0,2013-06-24 10:30:00
5:35 AM,57.2,57.2,100,29.90,3.0,Calm,Calm,-,N/A,,Clear,0,2013-06-24 10:35:00
5:53 AM,59.0,57.9,96,29.91,5.0,Calm,Calm,-,N/A,,Clear,0,2013-06-24 10:53:00
6:53 AM,62.1,61.0,96,29.91,7.0,Calm,Calm,-,N/A,,Clear,0,2013-06-24 11:53:00
7:53 AM,69.1,63.0,81,29.90,10.0,Calm,Calm,-,N/A,,Clear,0,2013-06-24 12:53:00
8:53 AM,71.1,64.0,78,29.90,10.0,SE,4.6,-,N/A,,Clear,140,2013-06-24 13:53:00
9:53 AM,75.9,63.0,64,29.90,10.0,South,6.9,-,N/A,,Clear,190,2013-06-24 14:53:00
10:53 AM,77.0,63.0,62,29.91,10.0,SSE,8.1,-,N/A,,Clear,160,2013-06-24 15:53:00
11:53 AM,77.0,63.0,62,29.88,10.0,South,6.9,-,N/A,,Clear,170,2013-06-24 16:53:00
12:53 PM,77.0,64.0,64,29.88,10.0,SSE,8.1,-,N/A,,Clear,160,2013-06-24 17:53:00
1:53 PM,78.1,64.9,64,29.86,10.0,SE,11.5,-,N/A,,Clear,140,2013-06-24 18:53:00
2:53 PM,79.0,66.9,66,29.84,10.0,SSE,8.1,-,N/A,,Clear,160,2013-06-24 19:53:00
3:53 PM,82.0,66.9,60,29.81,10.0,ESE,6.9,-,N/A,,Clear,120,2013-06-24 20:53:00
4:53 PM,80.1,66.0,62,29.83,10.0,South,11.5,-,N/A,,Scattered Clouds,180,2013-06-24 21:53:00
5:53 PM,77.0,69.1,76,29.83,10.0,South,8.1,-,N/A,,Mostly Cloudy,190,2013-06-24 22:53:00
6:53 PM,75.9,70.0,82,29.82,10.0,South,8.1,-,N/A,,Clear,170,2013-06-24 23:53:00
7:53 PM,75.0,70.0,84,29.81,10.0,SSE,5.8,-,N/A,,Clear,160,2013-06-25 00:53:00
8:53 PM,73.0,70.0,90,29.81,9.0,SSE,8.1,-,N/A,,Clear,150,2013-06-25 01:53:00
9:53 PM,72.0,69.1,91,29.83,10.0,SSE,6.9,-,N/A,,Clear,160,2013-06-25 02:53:00
10:53 PM,69.1,66.9,93,29.83,10.0,Calm,Calm,-,N/A,,Clear,0,2013-06-25 03:53:00
11:53 PM,69.1,66.0,90,29.82,10.0,SE,6.9,-,N/A,,Clear,130,2013-06-25 04:53:00